GW0203 Weather Reports


time (UTC)temp
F
wind
direction
speed
knots
gust
knots
rain 1hr
in
rain 24hr
in
rain mn
in
humidity
%
barometer
mb
20260507161121 62 352 0.0 6.1 0.00 0.31 0.31 57 1006.9
20260507155621 60 337 4.3 12.2 0.00 0.31 0.31 66 1007.0
20260507154118 60 3 5.2 7.0 0.00 0.31 0.31 65 1007.0
20260507152613 59 6 2.6 7.0 0.00 0.31 0.31 72 1007.1
20260507151109 57 303 1.7 5.2 0.00 0.31 0.31 77 1007.3
20260507145603 57 10 0.0 5.2 0.00 0.31 0.31 80 1007.6
20260507144101 56 340 5.2 8.7 0.00 0.31 0.31 80 1007.4
20260507142601 56 328 6.1 6.1 0.00 0.31 0.31 83 1007.6
20260507141057 55 2 3.5 12.2 0.00 0.31 0.31 81 1007.2
20260507135553 55 315 3.5 7.0 0.00 0.31 0.31 87 1007.7
20260507134049 53 353 0.0 7.8 0.00 0.31 0.31 91 1007.9
20260507132545 52 296 2.6 5.2 0.00 0.31 0.31 93 1007.6
20260507131042 52 261 3.5 8.7 0.00 0.31 0.31 93 1008.0
20260507125541 52 12 0.9 2.6 0.00 0.31 0.31 97 1007.6
20260507124038 50 241 1.7 7.0 0.00 0.31 0.31 99 1007.9
20260507122533 50 97 0.9 4.3 0.00 0.31 0.31 99 1007.8
20260507121032 50 337 0.0 2.6 0.00 0.31 0.31 99 1008.0
20260507115528 50 330 4.3 4.3 0.00 0.31 0.31 99 1007.8
20260507114023 50 14 0.0 1.7 0.02 0.31 0.31 99 1007.5
20260507112521 49 14 0.0 3.5 0.05 0.30 0.30 99 1007.4
20260507111016 49 0 0.0 2.6 0.07 0.29 0.29 99 1007.6
20260507105512 49 0 0.0 6.1 0.12 0.27 0.27 99 1007.7
20260507104008 49 11 1.7 6.1 0.00 0.25 0.25 99 1007.1
20260507102504 49 33 0.0 6.1 0.02 0.25 0.25 99 1006.7
20260507100958 49 324 2.6 7.0 0.02 0.24 0.24 99 1007.1
20260507095457 49 26 1.7 5.2 0.05 0.24 0.24 99 1007.3
20260507093952 50 313 2.6 4.3 0.02 0.23 0.23 99 1007.1
20260507092450 50 348 3.5 7.0 0.05 0.22 0.22 99 1007.0
20260507090945 49 5 2.6 7.0 0.07 0.21 0.21 99 1006.4
20260507085441 49 9 3.5 7.8 0.09 0.19 0.19 99 1006.7
20260507083938 49 348 3.5 9.6 0.02 0.17 0.17 99 1006.4
20260507082438 51 12 5.2 7.0 0.05 0.16 0.16 99 1006.3
20260507080935 52 352 2.6 7.0 0.09 0.15 0.15 99 1006.4
20260507075434 53 296 2.6 7.8 0.35 0.12 0.12 99 1006.3
20260507073931 53 270 1.7 5.2 0.14 0.04 0.04 99 1005.7
20260507072428 53 336 1.7 2.6 0.00 0.01 0.01 99 1005.5
20260507070924 53 120 0.9 1.7 0.00 0.01 0.01 99 1005.1
20260507065421 53 117 0.0 1.7 0.00 0.01 0.01 99 1005.1
20260507063920 53 10 2.6 2.6 0.00 0.01 0.01 99 1005.6
20260507062416 53 334 1.7 2.6 0.00 0.01 0.01 99 1005.6
20260507060916 52 265 1.7 2.6 0.02 0.01 0.01 99 1005.3
20260507055416 52 66 0.9 3.5 0.00 0.00 0.00 99 1005.5
20260507053913 52 219 2.6 4.3 0.00 0.00 0.00 99 1005.8
20260507052412 53 180 0.9 3.5 0.00 0.00 0.00 99 1006.2
20260507050909 53 350 1.7 4.3 0.00 0.00 0.00 99 1006.3
20260507045404 53 15 0.9 3.5 0.00 0.00 0.00 99 1006.2
20260507043900 53 187 0.0 1.7 0.00 0.00 0.00 99 1006.5
20260507042355 53 277 2.6 4.3 0.00 0.00 0.00 99 1006.4
20260507040852 53 180 0.0 4.3 0.00 0.00 0.00 99 1006.2
20260507035350 54 183 2.6 2.6 0.00 0.13 0.13 99 1006.6
20260507033848 54 169 0.9 3.5 0.00 0.13 0.13 99 1006.7
20260507032344 54 7 1.7 1.7 0.00 0.13 0.13 99 1007.0
20260507030840 54 176 1.7 2.6 0.00 0.13 0.13 99 1006.7
20260507025337 54 34 1.7 4.3 0.00 0.13 0.13 99 1006.4
20260507023834 54 233 0.0 3.5 0.00 0.13 0.13 99 1006.7
20260507022329 54 257 1.7 4.3 0.00 0.13 0.13 99 1006.8
20260507020825 55 99 0.0 3.5 0.00 0.13 0.13 99 1006.5
20260507015322 55 305 2.6 9.6 0.00 0.13 0.13 99 1006.7
20260507013817 54 63 0.0 7.8 0.00 0.13 0.13 99 1007.0
20260507012314 54 214 2.6 6.1 0.00 0.13 0.13 99 1006.9
20260507010814 54 90 4.3 6.1 0.00 0.13 0.13 99 1007.1
20260507005309 54 270 4.3 7.8 0.00 0.13 0.13 99 1007.4
20260507003806 54 263 2.6 8.7 0.00 0.13 0.13 99 1007.0
20260507002306 54 221 1.7 9.6 0.00 0.13 0.13 99 1007.1
20260507000802 54 233 4.3 13.9 0.00 0.13 0.13 99 1007.1
20260506235256 55 199 7.0 12.2 0.00 0.13 0.13 99 1007.3
20260506233754 55 209 4.3 8.7 0.00 0.13 0.13 99 1007.1
20260506232253 54 289 2.6 5.2 0.00 0.13 0.13 99 1007.1
20260506230751 53 194 2.6 7.0 0.02 0.13 0.13 99 1007.1
20260506225248 54 4 1.7 5.2 0.00 0.13 0.13 99 1007.0
20260506223743 53 23 1.7 11.3 0.02 0.12 0.12 99 1007.0
20260506222238 53 219 2.6 3.5 0.07 0.11 0.11 99 1006.9
20260506220737 53 101 2.6 7.8 0.09 0.09 0.09 99 1007.2
20260506215236 53 222 2.6 8.7 0.07 0.07 0.07 99 1007.5
20260506213734 53 270 2.6 7.8 0.00 0.06 0.06 99 1007.7
20260506212230 54 293 1.7 7.8 0.02 0.05 0.05 99 1007.8
20260506210725 54 274 4.3 6.1 0.00 0.04 0.04 99 1008.0
20260506205220 54 197 0.0 8.7 0.02 0.04 0.04 99 1008.1
20260506203718 54 206 2.6 6.1 0.02 0.04 0.04 98 1008.4
20260506202214 54 315 1.7 7.0 0.00 0.03 0.03 97 1008.1
20260506200711 55 265 3.5 12.2 0.00 0.03 0.03 96 1008.5
20260506195207 56 206 6.1 10.4 0.02 0.03 0.03 96 1008.5
20260506193704 56 90 1.7 6.1 0.09 0.03 0.03 95 1008.5
20260506192200 58 10 2.6 8.7 0.00 0.01 0.01 91 1008.4
20260506190656 59 166 7.8 13.0 0.00 0.01 0.01 87 1008.9
20260506185152 60 270 7.0 19.1 0.00 0.01 0.01 87 1008.8
20260506183649 59 225 5.2 11.3 0.00 0.01 0.01 87 1009.0
20260506182145 60 206 3.5 11.3 0.00 0.01 0.01 86 1009.1
20260506180643 60 188 8.7 13.0 0.00 0.01 0.01 86 1009.1
20260506175138 59 180 2.6 10.4 0.00 0.01 0.01 86 1009.5
20260506173637 60 201 10.4 11.3 0.00 0.01 0.01 85 1009.8
20260506172133 61 56 1.7 12.2 0.00 0.01 0.01 84 1010.0
20260506170631 63 232 4.3 6.1 0.00 0.01 0.01 81 1009.7
20260506165127 64 228 3.5 10.4 0.00 0.01 0.01 80 1010.0
20260506163623 62 323 3.5 11.3 0.00 0.01 0.01 84 1010.2
20260506162122 61 315 1.7 9.6 0.00 0.01 0.01 85 1010.5